Regional Weather Roundup
Issued by NWS

Home | Current Version | Previous Version | Text Only | Print | Product List | Glossary On
Versions: 1 2 3 4 5 6 7 8 9 10 11 12 13 14 15 16 17 18 19 20 21 22 23 24 25 26 27 28 29 30 31 32 33 34 35 36 37 38 39 40 41 42 43 44 45 46 47 48 49 50
000
ASUS44 KFWD 182010
RWRTX
NORTH TEXAS HOURLY WEATHER ROUNDUP
NATIONAL WEATHER SERVICE FORT WORTH TX
200 PM CST SAT NOV 18 2017

NOTE: "FAIR" INDICATES FEW OR NO CLOUDS BELOW 12,000 FEET WITH NO
SIGNIFICANT WEATHER AND/OR OBSTRUCTIONS TO VISIBILITY.

TXZ118-119-182100-
DALLAS/FORT WORTH METROPLEX

CITY           SKY/WX    TMP DP  RH WIND       PRES   REMARKS
DFW AIRPORT    CLOUDY    70  41  34 NW26G39   30.00R
DALLAS LOVE    CLOUDY    69  42  37 NW26G35   30.01R
FTW MEACHAM    PTSUNNY   67  42  40 NW28G39   30.04R
DAL-EXECUTIVE  CLOUDY    67  42  40 N24G31    30.00R
FTW-ALLIANCE   PTSUNNY   66  42  41 NW26G41   30.03R
FTW-NAS-JRB    PTSUNNY   68  40  35 N24G38    30.05R
FTW-SPINKS     SUNNY     66  39  37 NW28G44   30.05R
ARLINGTON      CLOUDY    67  42  40 NW25G39   30.01R
GRAND PRAIRIE  SUNNY     66  39  37 NW13G25   30.04R
ADDISON        MOSUNNY   68  41  37 NW21G33   30.02R
MESQUITE       MOSUNNY   66  39  37 NW22G32   30.00R
LANCASTER      CLOUDY    67  42  40 NW24G32   30.01R
$$

TXZ091>094-102>105-117-120-121-131>134-182100-
NORTH CENTRAL TEXAS

CITY           SKY/WX    TMP DP  RH WIND       PRES   REMARKS
SHRMAN/DENISON CLOUDY    59  39  47 NW29G37   30.07R
GAINESVILLE    PTSUNNY   59  37  43 NW26G37   30.09R
BOWIE          CLOUDY    60  40  48 N20G37    30.09R
DECATUR        CLOUDY    61  42  49 NW18G33   30.06R
DENTON         CLOUDY    66  42  41 N31G38    30.04R
MCKINNEY       PTSUNNY   67  43  41 NW32G40   30.01R
BONHAM         CLOUDY   N/A N/A N/A N22G37    30.03R
GREENVILLE     CLOUDY    68  41  37 N25G36    29.99R
ROCKWALL       CLOUDY    67  42  40 N25G36    30.00R
TERRELL        MOSUNNY   69  40  34 N23G35    29.98R
WAXAHACHIE     CLOUDY    67  43  41 NW20G30   30.02R
CLEBURNE       PTSUNNY   66  41  39 N25G35    30.05R
GRANBURY       MOSUNNY   68  38  33 NW25G35   30.06R
$$

TXZ083>090-098>101-113>116-127>130-139>142-154-155-182100-
WESTERN NORTH TEXAS

CITY           SKY/WX    TMP DP  RH WIND       PRES   REMARKS
WICHITA FALLS  MOSUNNY   61  33  35 N28G41    30.13S HAZE
WF-KICKAPOO    SUNNY     61  34  36 N24G36    30.16S
VERNON         SUNNY     63  25  23 N28G37    30.17F
ABILENE        MOSUNNY   61  33  35 N25G38    30.14S
ABILENE-DYESS  MOSUNNY   62  35  37 N26G35      N/A
GRAHAM           N/A     61  34  36 NW24G33   30.11R
BRECKENRIDGE   MOSUNNY   65  35  32 N22G33    30.12R HAZE
CISCO          PTSUNNY   63  36  36 N21G31    30.12R
EASTLAND       MOSUNNY   63  37  37 N20G31    30.11R
RANGER         MOSUNNY   64  37  37 N22G28    30.10R
MINERAL WELLS  MOSUNNY   66  38  35 N25G37    30.07R
STEPHENVILLE   PTSUNNY   65  33  30 N25G36    30.09R
COMANCHE       MOSUNNY   66  35  31 N26G36    30.09R
BROWNWOOD      SUNNY     68  27  21 N25G37    30.09R
COLEMAN        SUNNY     67  28  23 N21G32    30.12R
$$

TXZ143>147-156>162-174-175-182100-
CENTRAL TEXAS

CITY           SKY/WX    TMP DP  RH WIND       PRES   REMARKS
WACO           SUNNY     72  42  34 NW22G30   30.00R
WACO-TSTC      SUNNY     72  41  33 N22G35    30.00R
WACO-MCGREGOR  SUNNY     71  43  36 NW24G31   30.02R
HILLSBORO      MOSUNNY   71  43  36 NW28G36   30.01R
MEXIA          SUNNY     70  42  35 NW24G33   29.97R
HEARNE         SUNNY     74  45  35 NW26G33   29.96R
CAMERON        SUNNY     74  44  34 N21G30    29.98R
TEMPLE         SUNNY     71  43  36 NW26G36   30.00S
KILLEEN        SUNNY     70  41  34 N24G30    30.01S
KILLEEN-SKYLRK SUNNY     71  42  35 N22G31    30.01S
FORT HOOD      SUNNY     71  41  33 N31G38    29.98F
GATESVILLE     SUNNY     70  41  35 NW16G26   30.05R
HAMILTON       MOSUNNY   69  37  29 N24       30.05S
LAMPASAS       SUNNY     71  42  36 N20G30    30.04S
$$

TXZ095>097-106>112-122>126-135>138-148>153-164>167-182100-
EAST TEXAS

CITY           SKY/WX    TMP DP  RH WIND       PRES   REMARKS
PARIS          CLOUDY    65  44  46 NW25G33   29.97R
SULPHUR SPRNGS MOSUNNY   68  43  40 N32G38    29.98R
MOUNT PLEASANT PTSUNNY   67  45  44 NW21G31   29.94R
GILMER         CLOUDY    68  46  45 NW16G26   29.92R
MINEOLA        MOSUNNY   70  45  40 N20G35    29.95R
TYLER          MOSUNNY   71  44  37 NW28G33   29.93R
LONGVIEW       SUNNY     73  50  43 NW23G35   29.88R
MARSHALL       SUNNY     73  48  41 NW21G29   29.89R
ATHENS         SUNNY     64  41  42 NW18G24   29.95R
PALESTINE      SUNNY     73  46  38 W21G26    29.94R
JACKSONVILLE   SUNNY     73  48  42 NW13G23   29.92R
HENDERSON      SUNNY     73  47  39 W17G29    29.90R
CENTER         MOCLDY    80  58  46 W15G26    29.81S
NACOGDOCHES    SUNNY     81  57  43 NW21      29.84R
LUFKIN         PTSUNNY   82  64  54 W12G22    29.82F
$$

SUPPLEMENTAL OBSERVATIONS (NWS FORT WORTH AREA)

CITY           SKY/WX    TMP DP  RH WIND       PRES   REMARKS
CADDO GRASSLND   N/A     61  39  44 N12G33      N/A
LBJ GRASSLAND    N/A     63  41  45 NW14G35     N/A
POSSUM KINGDOM   N/A     64  37  36 NW22G35     N/A
GRANBURY         N/A     68  37  32 NW26G35     N/A
MCGREGOR         N/A     72  41  33 N16G30      N/A
TEMPLE           N/A     72  41  33 NW26G32     N/A
$$

SUPPLEMENTAL OBSERVATIONS (NWS NORMAN AREA)

CITY           SKY/WX    TMP DP  RH WIND       PRES   REMARKS
GOODLETT         N/A     61  26  26 N21G30    30.19R
ODELL            N/A     60  30  31 N31       30.19S
CROWELL          N/A     63  30  28 N28       30.19S
KNOX CITY        N/A     63  28  26 N24G36    30.19R
SEYMOUR          N/A     62  30  30 N31G38    30.17R
MILLERS CREEK    N/A     63  34  34 N20G35      N/A
$$

SUPPLEMENTAL OBSERVATIONS (NWS SAN ANGELO AREA)

CITY           SKY/WX    TMP DP  RH WIND       PRES   REMARKS
WEINERT          N/A     62  31  30 N29       30.18R
HASKELL          N/A     62  29  28 N23G30    30.17S
THROCKMORTON     N/A     62  36  38 N21G28    30.16R
STAMFORD         N/A     62  33  34 N22G29    30.18R
CLYDE            N/A     61  35  37 N23       30.15S
HAMBY            N/A     63  34  34 N20G30      N/A
$$

SUPPLEMENTAL OBSERVATIONS (NWS SHREVEPORT AREA)

CITY           SKY/WX    TMP DP  RH WIND       PRES   REMARKS
TEXARKANA        N/A     64  45  48 NW15G31     N/A
LINDEN           N/A     68  46  45 NW13G26     N/A
N SABINE NF      N/A     81  64  57 MISG        N/A
$$

SUPPLEMENTAL OBSERVATIONS ARE A COLLECTION OF AUTOMATED INSTRUMENTS
THAT ARE MAINTAINED BY A VARIETY OF FEDERAL AND STATE AGENCIES.
CERTAIN ELEMENTS...SUCH AS HUMIDITY VALUES AND SUSTAINED WIND
SPEEDS...MAY BE APPROXIMATED.




USA.gov is the U.S. government's official web portal to all federal, state and local government web resources and services.